TimeEST,TemperatureF,Dew PointF,Humidity,Sea Level PressureIn,VisibilityMPH,Wind Direction,Wind SpeedMPH,Gust SpeedMPH,PrecipitationIn,Events,Conditions,WindDirDegrees,DateUTC
12:53 AM,10.0,-6.0,48,30.47,10.0,WNW,17.3,-,N/A,,Clear,290,2014-01-24 05:53:00
1:53 AM,8.1,-7.1,50,30.47,10.0,SW,5.8,-,N/A,,Clear,220,2014-01-24 06:53:00
2:53 AM,7.0,-8.0,51,30.49,10.0,South,5.8,-,N/A,,Clear,180,2014-01-24 07:53:00
3:53 AM,7.0,-8.0,51,30.49,10.0,Variable,4.6,-,N/A,,Clear,0,2014-01-24 08:53:00
4:53 AM,5.0,-8.0,55,30.51,10.0,WSW,10.4,-,N/A,,Clear,240,2014-01-24 09:53:00
5:53 AM,8.1,-7.1,50,30.51,10.0,West,10.4,-,N/A,,Clear,280,2014-01-24 10:53:00
6:53 AM,6.1,-8.0,53,30.53,10.0,WSW,4.6,-,N/A,,Clear,240,2014-01-24 11:53:00
7:53 AM,5.0,-8.0,55,30.53,10.0,WSW,4.6,-,N/A,,Clear,250,2014-01-24 12:53:00
8:53 AM,6.1,-7.1,55,30.53,10.0,WSW,9.2,-,N/A,,Clear,250,2014-01-24 13:53:00
9:53 AM,10.0,-5.1,51,30.53,10.0,WSW,9.2,-,N/A,,Clear,250,2014-01-24 14:53:00
10:53 AM,12.0,-4.0,49,30.51,10.0,WSW,8.1,-,N/A,,Clear,240,2014-01-24 15:53:00
11:53 AM,15.1,-5.1,41,30.46,10.0,SW,9.2,-,0.00,,Clear,230,2014-01-24 16:53:00
12:53 PM,17.1,-5.1,37,30.41,10.0,SW,10.4,-,0.00,,Clear,230,2014-01-24 17:53:00
1:53 PM,19.0,-5.1,34,30.37,10.0,WSW,10.4,-,0.00,,Clear,250,2014-01-24 18:53:00
2:53 PM,19.9,-6.0,32,30.34,10.0,West,13.8,-,0.00,,Clear,260,2014-01-24 19:53:00
3:53 PM,21.0,-5.1,32,30.30,10.0,SSW,9.2,-,0.00,,Clear,210,2014-01-24 20:53:00
4:53 PM,19.9,-5.1,33,30.27,10.0,South,8.1,-,N/A,,Clear,190,2014-01-24 21:53:00
5:53 PM,18.0,-4.0,38,30.25,10.0,South,5.8,-,N/A,,Clear,180,2014-01-24 22:53:00
6:53 PM,18.0,-4.0,38,30.23,10.0,South,4.6,-,N/A,,Clear,170,2014-01-24 23:53:00
7:53 PM,18.0,-4.0,38,30.18,10.0,South,8.1,-,N/A,,Clear,180,2014-01-25 00:53:00
8:53 PM,16.0,-5.1,39,30.14,10.0,South,5.8,-,N/A,,Clear,190,2014-01-25 01:53:00
9:53 PM,15.1,-4.0,43,30.10,10.0,South,5.8,-,N/A,,Partly Cloudy,170,2014-01-25 02:53:00
10:53 PM,14.0,-5.1,43,30.06,10.0,South,4.6,-,N/A,,Clear,180,2014-01-25 03:53:00
11:53 PM,14.0,-6.0,41,30.02,10.0,South,5.8,-,N/A,,Clear,180,2014-01-25 04:53:00